| time (UTC) | temp F | wind direction | speed MPH | gust MPH | rain 1hr in | rain 24hr in | rain mn in | humidity % | barometer mb |
| 20260505041550 | 49 | 225 | 2.0 | 11.0 | 0.00 | 0.00 | 0.00 | 93 | 1012.8 |
| 20260505040042 | 49 | 191 | 5.0 | 10.0 | 0.00 | 0.00 | 0.00 | 93 | 1012.7 |
| 20260505034601 | 49 | 211 | 4.0 | 11.0 | 0.00 | 0.00 | 0.00 | 92 | 1012.8 |
| 20260505033045 | 49 | 219 | 3.0 | 12.0 | 0.00 | 0.00 | 0.00 | 92 | 1012.8 |
| 20260505031536 | 49 | 233 | 3.0 | 15.0 | 0.00 | 0.00 | 0.00 | 92 | 1012.9 |
| 20260505030046 | 49 | 195 | 5.0 | 10.0 | 0.00 | 0.00 | 0.00 | 92 | 1013.0 |
| 20260505024540 | 49 | 199 | 5.0 | 11.0 | 0.00 | 0.00 | 0.00 | 92 | 1013.0 |
| 20260505023046 | 49 | 225 | 3.0 | 12.0 | 0.00 | 0.00 | 0.00 | 91 | 1013.0 |
| 20260505021537 | 50 | 202 | 4.0 | 13.0 | 0.00 | 0.00 | 0.00 | 91 | 1013.1 |
| 20260505020037 | 50 | 237 | 5.0 | 11.0 | 0.00 | 0.00 | 0.00 | 90 | 1013.1 |
| 20260505014544 | 50 | 212 | 4.0 | 11.0 | 0.00 | 0.00 | 0.00 | 89 | 1013.1 |
| 20260505013043 | 50 | 186 | 7.0 | 14.0 | 0.00 | 0.00 | 0.00 | 89 | 1012.8 |
| 20260505011557 | 50 | 245 | 5.0 | 13.0 | 0.00 | 0.00 | 0.00 | 88 | 1012.6 |
| 20260505010039 | 50 | 211 | 6.0 | 13.0 | 0.00 | 0.00 | 0.00 | 87 | 1012.4 |
| 20260505004547 | 50 | 225 | 7.0 | 18.0 | 0.00 | 0.00 | 0.00 | 86 | 1012.1 |
| 20260505003052 | 50 | 202 | 3.0 | 14.0 | 0.00 | 0.00 | 0.00 | 85 | 1011.9 |
| 20260505001558 | 50 | 188 | 8.0 | 16.0 | 0.00 | 0.00 | 0.00 | 84 | 1011.8 |
| 20260505000100 | 51 | 235 | 6.0 | 18.0 | 0.00 | 0.00 | 0.00 | 83 | 1011.6 |
| 20260504234607 | 51 | 177 | 6.0 | 18.0 | 0.00 | 0.00 | 0.00 | 82 | 1011.5 |
| 20260504233051 | 52 | 192 | 7.0 | 16.0 | 0.00 | 0.00 | 0.00 | 81 | 1011.5 |
| 20260504231537 | 52 | 160 | 7.0 | 18.0 | 0.00 | 0.00 | 0.00 | 81 | 1011.3 |
| 20260504230046 | 52 | 248 | 5.0 | 15.0 | 0.00 | 0.00 | 0.00 | 80 | 1011.4 |
| 20260504224544 | 53 | 232 | 6.0 | 16.0 | 0.00 | 0.00 | 0.00 | 78 | 1011.2 |
| 20260504223044 | 54 | 195 | 7.0 | 17.0 | 0.00 | 0.00 | 0.00 | 76 | 1011.2 |
| 20260504221539 | 55 | 212 | 7.0 | 19.0 | 0.00 | 0.00 | 0.00 | 75 | 1011.2 |
| 20260504220039 | 56 | 207 | 8.0 | 20.0 | 0.00 | 0.00 | 0.00 | 72 | 1011.2 |
| 20260504214542 | 56 | 227 | 7.0 | 19.0 | 0.00 | 0.00 | 0.00 | 72 | 1011.1 |
| 20260504213038 | 57 | 229 | 6.0 | 17.0 | 0.00 | 0.00 | 0.00 | 70 | 1011.0 |
| 20260504211543 | 57 | 205 | 7.0 | 18.0 | 0.00 | 0.00 | 0.00 | 69 | 1011.0 |
| 20260504210043 | 58 | 223 | 7.0 | 16.0 | 0.00 | 0.00 | 0.00 | 69 | 1011.0 |
| 20260504204540 | 58 | 247 | 6.0 | 18.0 | 0.00 | 0.00 | 0.00 | 71 | 1011.0 |
| 20260504203057 | 58 | 184 | 9.0 | 17.0 | 0.00 | 0.00 | 0.00 | 70 | 1010.8 |
| 20260504201538 | 57 | 226 | 7.0 | 19.0 | 0.00 | 0.00 | 0.00 | 72 | 1010.8 |
| 20260504200037 | 57 | 197 | 8.0 | 21.0 | 0.00 | 0.00 | 0.00 | 72 | 1010.8 |
| 20260504194537 | 58 | 194 | 9.0 | 21.0 | 0.00 | 0.00 | 0.00 | 69 | 1010.7 |
| 20260504193043 | 58 | 161 | 8.0 | 21.0 | 0.00 | 0.00 | 0.00 | 69 | 1010.7 |
| 20260504191549 | 59 | 207 | 8.0 | 18.0 | 0.00 | 0.00 | 0.00 | 70 | 1010.8 |
| 20260504190041 | 59 | 185 | 8.0 | 18.0 | 0.00 | 0.00 | 0.00 | 68 | 1011.1 |
| 20260504184539 | 60 | 196 | 6.0 | 15.0 | 0.00 | 0.00 | 0.00 | 67 | 1011.2 |
| 20260504183037 | 61 | 199 | 6.0 | 16.0 | 0.00 | 0.00 | 0.00 | 65 | 1011.3 |
| 20260504181538 | 61 | 200 | 7.0 | 20.0 | 0.00 | 0.00 | 0.00 | 65 | 1011.3 |
| 20260504180044 | 61 | 203 | 6.0 | 17.0 | 0.00 | 0.00 | 0.00 | 65 | 1011.2 |
| 20260504174540 | 61 | 235 | 8.0 | 19.0 | 0.00 | 0.00 | 0.00 | 65 | 1011.3 |
| 20260504173038 | 59 | 246 | 7.0 | 15.0 | 0.00 | 0.00 | 0.00 | 69 | 1011.3 |
| 20260504171546 | 59 | 249 | 9.0 | 18.0 | 0.00 | 0.00 | 0.00 | 69 | 1011.3 |
| 20260504081537 | 47 | 211 | 1.0 | 6.0 | 0.00 | 0.00 | 0.00 | 72 | 1012.0 |
| 20260504044541 | 44 | 215 | 0.0 | 3.0 | 0.00 | 0.00 | 0.00 | 72 | 1011.7 |
| 20260504043048 | 44 | 0 | 0.0 | 3.0 | 0.00 | 0.00 | 0.00 | 71 | 1011.8 |